sat.trackr.live / text

‹ back to catalog

STARLINK-34092

NORAD 63904 · 2025-095Q

PAYLOAD ACTIVE UNKNOWN

§ Identity

Operator
Country
US
Launch date
2025-05-10
Launch site
AFETR
Launch vehicle
Mass (kg)
RCS (m²)

Purposes: comms

External: N2YO · Heavens-Above · Gunter

§ Orbital elements

Epoch: 2026-05-25T04:25:57.688608Z

Period
94.27 min
Inclination
43.0008°
Eccentricity
0.0000515
Mean motion
15.27590468 rev/d
Perigee alt
482.7 km
Apogee alt
483.4 km
Semi-major
6,861.2 km
B*
5.3525e-4
RAAN
104.4803°
Arg perigee
251.8975°
Mean anomaly
108.1821°
Rev number
5,947

§ Raw data

STARLINK-340921 63904U 25095Q   26145.18469547  .00014501  00000+0  53525-3 0  99982 63904  43.0008 104.4803 0000515 251.8975 108.1821 15.27590468 59470

JSON: /api/v1/satellites/63904 · /tle

For live sub-satellite position, see the globe view (requires WebGL).

§ Visibility from observer

Set your observer location to see the next 7 days of passes ≥ 10°. The values pass through the URL so the page stays shareable.

No JS? Fill the form by hand. The geolocation button needs JavaScript.